Simultaneous Nadir Overpasses (SNOs) Predictions

Prediction of SNOs between AQUA and GOES-15 Satellite Orbit:

Table of predicted SNOs for the next 14.0 days since TLE Epoch: 7/12/2019
Index Date Time (AQUA) AQUA Lat,Lon GOES-15 Lat,Lon Distance(km) Time Diff (sec)
1 07/12/2019 22:22:23 -0.64,-131.61 0.18,-127.68 447.10 80
2 07/14/2019 09:48:47 -1.08,-123.46 -0.16,-127.77 489.71 80
3 07/14/2019 22:10:11 -0.01,-128.66 0.18,-127.75 102.62 80
4 07/16/2019 21:57:59 0.63,-125.70 0.19,-127.83 241.51 80
5 07/17/2019 10:19:15 0.44,-130.86 -0.21,-127.88 339.42 80
6 07/19/2019 10:07:03 -0.20,-127.91 -0.20,-127.95 4.80 80
7 07/21/2019 09:54:51 -0.84,-124.95 -0.20,-128.02 348.11 80
8 07/21/2019 22:16:14 -0.23,-130.15 0.22,-127.99 244.82 80
9 07/23/2019 22:04:02 0.42,-127.19 0.22,-128.05 98.52 80
10 07/24/2019 10:25:18 0.67,-132.35 -0.24,-128.11 482.28 80
11 07/25/2019 21:51:50 1.02,-124.23 0.22,-128.11 441.31 80
12 07/26/2019 10:13:06 0.02,-129.40 -0.24,-128.17 139.77 80




NCC Satellite Simultaneous Nadir Overpasses (SNOs) Prediction Service
